Flag for U.S.A. Weather past 2 weeks in Frankfort, Kentucky, U.S.A.

Now
38 °F

Sunny.


Feels Like: 34 °F
Forecast: 36 / 63 °F
Wind: 5 mph from Northwest

Location: Capital City Airport

Current Time: Apr 27, 2015 at 8:13:59 AM

Latest Report: Apr 27, 2015 at 7:53 AM


Visibility: 10 mi

Pressure: 29.96 "Hg

Humidity: 86%

Dew point: 34 °F

Location of FrankfortLocation

Historic Weather in Frankfort — Graph

°F

Frankfort temperature yesterday

Maximum temperature yesterday: 62 °F (at 3:53 PM)
Minimum temperature yesterday: 43 °F (at 6:53 AM)
Average temperature yesterday: 52 °F

Past Weeks' High & Low Weather Summary

 TemperatureHumidityPressure
High79 °F (Apr 13, 3:53 PM)96% (Apr 17, 8:01 AM)30.22 "Hg (Apr 17, 8:01 AM)
Low30 °F (Apr 24, 4:53 AM)16% (Apr 23, 5:53 PM)29.44 "Hg (Apr 19, 7:53 PM)
Average57 °F65%29.93 "Hg
* Reported Apr 12 6:53 AM — Apr 27 6:53 AM, Frankfort, Weather by CustomWeather, © 2015

Note: Actual official high and low records may vary slightly from our data, if they occured in-between our weather recording intervals... More about our weather records

Advertising

Frankfort weather history for previous 24 hours

 ConditionsComfort  
Time TempWeatherWind HumidityBarometerVisibility
6:53 AM
Mon, Apr 27
35 °FClear.No wind88%29.93 "Hg10 mi
5:53 AM37 °FClear.No wind86%29.92 "Hg10 mi
4:53 AM37 °FClear.3 mph89%29.91 "Hg10 mi
3:53 AM38 °FClear.No wind86%29.90 "Hg10 mi
2:53 AM40 °FClear.No wind80%29.90 "Hg10 mi
1:53 AM44 °FClear.3 mph68%29.90 "Hg10 mi
12:53 AM45 °FClear.3 mph65%29.91 "Hg10 mi
11:53 PM
Sun, Apr 26
48 °FClear.6 mph59%29.89 "Hg10 mi
10:53 PM51 °FClear.5 mph52%29.90 "Hg10 mi
9:53 PM53 °FClear.8 mph48%29.88 "Hg10 mi
8:53 PM55 °FSunny.7 mph44%29.86 "Hg10 mi
7:53 PM59 °FSunny.8 mph36%29.83 "Hg10 mi
6:53 PM61 °FSunny.7 mph32%29.82 "Hg10 mi
5:53 PM62 °FSunny.9 mph31%29.81 "Hg10 mi
4:53 PM62 °FSunny.9 mph32%29.80 "Hg10 mi
3:53 PM62 °FSunny.10 mph34%29.81 "Hg10 mi
2:53 PM61 °FSunny.7 mph39%29.82 "Hg10 mi
1:53 PM60 °FSunny.13 mph44%29.82 "Hg10 mi
12:53 PM57 °FSunny.13 mph46%29.82 "Hg10 mi
11:53 AM54 °FSunny.8 mph53%29.82 "Hg10 mi
10:53 AM48 °FOvercast.7 mph66%29.81 "Hg10 mi
9:53 AM45 °FOvercast.7 mph68%29.80 "Hg10 mi
8:53 AM45 °FPartly sunny.9 mph71%29.78 "Hg10 mi
Weather by CustomWeather, © 2015

See weather overviewHow to use our weather pages